• Processing (Info)

  • MPEC 2023-F26 : 2023 FC

    The following Minor Planet Electronic Circular may be linked-to from your own Web pages, but must not otherwise be redistributed electronically.

    A form allowing access to any MPEC is at the bottom of this page.


    Read MPEC 2023-F25 Read MPEC 2023-F27


    M.P.E.C. 2023-F26                                Issued 2023 March 18, 02:09 UT
    
         The Minor Planet Electronic Circulars contain information on unusual
             minor planets, routine data on comets and natural satellites,
             and occasional editorial announcements.  They are published
        on behalf of Division F of the International Astronomical Union by the
              Minor Planet Center, Smithsonian Astrophysical Observatory,
                              Cambridge, MA 02138, U.S.A.
    			  
                 Prepared using the Tamkin Foundation Computer Network
    
                                  MPC@CFA.HARVARD.EDU
                URL https://www.minorplanetcenter.net/    ISSN 1523-6714
    
                                     2023 FC                                 
    
    
    Observations:
         K23F00C* C2023 03 16.31153210 55 57.869+15 16 09.92         20.36wUEF026F52
         K23F00C  C2023 03 16.32425810 55 58.861+15 15 07.06         20.46wUEF026F52
         K23F00C  C2023 03 16.33702210 55 59.843+15 14 03.99         19.97wUEF026F52
         K23F00C  C2023 03 16.49652710 56 11.770+15 00 37.99         19.73GVEF026F52
         K23F00C  C2023 03 16.49715810 56 11.821+15 00 34.84         19.75GVEF026F52
         K23F00C KC2023 03 16.77500510 56 49.57 +14 36 07.4          20.1 GVEF026L01
         K23F00C KC2023 03 16.77626410 56 49.69 +14 36 00.6          20.2 GVEF026L01
         K23F00C KC2023 03 16.77752710 56 49.81 +14 35 54.5          20.0 GVEF026L01
         K23F00C KC2023 03 16.77879010 56 49.94 +14 35 47.5          20.2 GVEF026L01
         K23F00C KC2023 03 16.78005210 56 50.07 +14 35 41.2          20.1 GVEF026L01
         K23F00C KC2023 03 16.83545310 56 55.49 +14 30 58.1          19.5 GVEF026104
         K23F00C KC2023 03 16.84046510 56 55.95 +14 30 32.0          19.3 GVEF026104
         K23F00C KC2023 03 16.84673110 56 56.50 +14 29 59.3          19.3 GVEF026104
         K23F00C KC2023 03 16.86621 10 56 57.53 +14 28 13.5          18.9 GXEF026G02
         K23F00C KC2023 03 16.87146 10 56 57.98 +14 27 45.7          19.1 GXEF026G02
         K23F00C KC2023 03 16.87970 10 56 59.17 +14 27 05.6          20.2 RrEF026106
         K23F00C KC2023 03 16.88499 10 56 59.62 +14 26 38.6          20.4 RrEF026106
         K23F00C KC2023 03 16.89028 10 57 00.09 +14 26 11.7          19.8 RrEF026106
         K23F00C KC2023 03 16.89556 10 57 00.54 +14 25 43.3          19.8 RrEF026106
         K23F00C KC2023 03 16.89575 10 57 00.86 +14 25 44.9          19.6 GXEF026K83
         K23F00C KC2023 03 16.90352 10 57 01.45 +14 25 05.5          19.6 GXEF026K83
         K23F00C KC2023 03 16.91057 10 57 02.50 +14 24 27.3          19.2 VZEF026C95
         K23F00C KC2023 03 16.91429510 57 03.30 +14 24 09.2          18.9 GXEF026958
         K23F00C KC2023 03 16.91520810 57 03.40 +14 24 03.9          19.4 GXEF026958
         K23F00C KC2023 03 16.91883 10 57 03.23 +14 23 44.3          19.8 VZEF026C95
         K23F00C KC2023 03 16.92242010 57 04.01 +14 23 30.0                XEF026958
         K23F00C KC2023 03 16.92711 10 57 03.94 +14 23 00.8          19.7 VZEF026C95
         K23F00C KC2023 03 16.92944210 57 04.61 +14 22 47.6                XEF026958
         K23F00C KC2023 03 16.93469110 57 05.00 +14 22 21.6          19.3 GXEF026958
         K23F00C KC2023 03 16.94478510 57 05.91 +14 21 27.1          19.0 GXEF026958
         K23F00C KC2023 03 16.98989410 57 08.79 +14 17 26.2          19.6 GXEF026595
         K23F00C KC2023 03 17.00926910 57 10.55 +14 15 42.9          19.8 GXEF026595
         K23F00C KC2023 03 17.02831810 57 12.29 +14 14 01.3          19.9 GXEF026595
         K23F00C KC2023 03 17.80500 10 58 50.33 +13 03 05.6          20.0 GXEF026K78
         K23F00C KC2023 03 17.81790 10 58 51.65 +13 01 53.4          20.1 GXEF026K78
         K23F00C KC2023 03 17.83080 10 58 52.97 +13 00 40.9          19.9 GXEF026K78
         K23F00C KC2023 03 17.83585010 58 53.420+13 00 12.64         19.3 GVEF026K63
         K23F00C KC2023 03 17.84604510 58 54.452+12 59 15.93         20.0 GVEF026K63
         K23F00C KC2023 03 17.87883 10 58 57.29 +12 56 08.8          19.6 RrEF026106
         K23F00C KC2023 03 17.88411 10 58 57.81 +12 55 39.3          19.5 RrEF026106
         K23F00C KC2023 03 17.88970 10 58 58.36 +12 55 06.7          19.8 RrEF026106
         K23F00C KC2023 03 17.89499 10 58 58.88 +12 54 37.4          19.8 RrEF026106
    
    Observer details:
    104 San Marcello Pistoiese.  Observers P. Bacci, M. Maestripieri.  Measurers
        P. Bacci, L. Tesi, G. Fagioli.  0.60-m F4 Reflector + CCD.
    106 Crni Vrh.  Observer H. Mikuz.  0.6-m f/3.3 Deltagraph + CCD.
    595 Farra d'Isonzo.  Observer E. Pettarin.  0.61-m f/4.5 reflector + CCD.
    958 Observatoire de Dax.  Observer P. Dupouy.  0.50-m f/4.5 Reflector + CCD.
    C95 SATINO Remote Observatory, Haute Provence.  Observers D. Husar, K. Meo.
        Measurer D. Husar.  0.30-m f/5.8 reflector + CCD.
    F52 Pan-STARRS 2, Haleakala.  Observers J. Bulger, T. Lowe, A. Schultz, I.
        Smith, K. Chambers, T. Dukes.  Measurers K. Chambers, S. Chastel, T. de
        Boer, J. Fairlamb, H. Gao, M. Huber, C.-C. Lin, E. Magnier, Y.
        Ramanjooloo, R. Wainscoat, R. Weryk.  1.8-m Ritchey-Chretien + CCD.
    G02 KYSUCE Observatory, Kysucke Nove Mesto.  Observer M. Urbanik.  0.40-m
        f/5.5 Corrected Dall-Kirkham + CCD.
    K63 G. Pascoli Observatory, Castelvecchio Pascoli.  Observer R. Bacci.  0.41-m
        f/3.2 Reflector + CCD.
    K78 iota Scorpii Observatory, La Spezia.  Observers G. Scarfi, P. Boongerd.
        0.40-m f/6.1 reflector + CCD.
    K83 Beppe Forti Astronomical Observatory, Montelupo.  Observers M. Tombelli,
        A. Squilloni, E. Venticinque, G. Interrante, A. Mazzanti, T. Bitossi.
        Measurers M. Tombelli, F. Bernardi.  0.40-m f/8 Ritchey-Chretien + CCD.
    L01 Visnjan Observatory, Tican.  Observers K. Korlevic, M. Himelreich.
        Measurer K. Korlevic.  1.0-m f/2.9 reflector + CCD.
    
    Orbital elements:
    2023 FC                                                  Earth MOID = 0.0612 AU
    Epoch 2023 Feb. 25.0 TT = JDT 2460000.5                 Veres                   
    M 346.15624              (2000.0)            P               Q                  
    n   0.31773797     Peri.  200.68136     -0.93807958     +0.34641874             
    a   2.1269468      Node   359.58406     -0.29857306     -0.80978759             
    e   0.5059714      Incl.    6.89706     -0.17567250     -0.47353787             
    P   3.10           H   24.03          G   0.15           U   8                  
    Residuals in seconds of arc
    230316 F52  0.1+  0.1+    230316 G02  0.5-  0.3+    230316 958  1.8-  0.7+
    230316 F52  0.0   0.0     230316 106  0.2+  0.7-    230316 958  1.2-  0.9-
    230316 F52  0.0   0.0     230316 106  0.0   0.2-    230316 595  0.2-  0.0
    230316 F52  0.0   0.1-    230316 106  0.1+  0.5+    230317 595  0.2+  0.0
    230316 F52  0.0   0.0     230316 106  0.1-  0.3-    230317 595  0.3+  0.3+
    230316 L01  0.1+  0.2+    230316 K83  0.4+  0.5-    230317 K78  0.1+  0.2+
    230316 L01  0.1+  0.2-    230316 K83  0.8-  0.6+    230317 K78  0.0   0.0
    230316 L01  0.0   0.1+    230316 C95  0.2-  0.1-    230317 K78  0.2+  0.3-
    230316 L01  0.1+  0.4-    230316 958  0.7-  1.6+    230317 K63  0.1-  0.4-
    230316 L01  0.2+  0.2-    230316 958  0.4-  1.1+    230317 K63  0.2+  0.2+
    230316 104  0.1-  0.3+    230316 C95  0.0   0.2+    230317 106  0.3-  0.1+
    230316 104  0.0   0.1+    230316 958  0.7-  4.8+    230317 106  0.1-  0.5+
    230316 104  0.2-  0.3-    230316 C95  0.0   0.0     230317 106  0.1+  0.4-
    230316 G02  0.2-  0.8+    230316 958  0.8-  0.8-    230317 106  0.3+  0.3+
    
    Ephemeris:
    2023 FC                  a,e,i = 2.13, 0.51, 7                   q = 1.0508
    Date    TT    R. A. (2000) Decl.     Delta      r    Elong.  Phase     V
    2023 02 16    10 33 56.9 +29 52 00   0.2386  1.2155   160.6    15.7    22.2
    ...
    2023 03 03    10 40 54.8 +26 25 35   0.1567  1.1400   160.5    16.9    21.2
    ...
    2023 03 11    10 48 03.1 +21 14 25   0.1203  1.1075   160.9    17.1    20.6
    ...
    2023 03 17    10 57 11.3 +14 17 25   0.09653 1.0874   162.8    15.7    20.0
    2023 03 18    10 59 10.7 +12 45 33   0.09294 1.0844   163.3    15.3    19.9
    2023 03 19    11 01 20.0 +11 05 52   0.08947 1.0816   163.8    14.9    19.8
    ...
    2023 03 25    11 18 39.6 -02 06 41   0.07190 1.0670   166.2    12.9    19.2
    ...
    2023 04 02    11 59 55.1 -28 29 26   0.06118 1.0546   154.0    24.5    19.2
    ...
    2023 04 17    14 53 46.8 -64 31 52   0.08642 1.0544   124.1    52.0    20.7
    
    M. P. C. Staff               (C) Copyright 2023 MPC           M.P.E.C. 2023-F26
    


    Read MPEC 2023-F25 Read MPEC 2023-F27


    MPEC number:

    Enter an MPEC number in one of the following forms:

    • 1997-B01 (the full form)
    • J97B01 (the packed version of the full form)
    • B01 (the abbreviated form)